Weather Roundup
Issued by NWS

Home | Current Version | Previous Version | Text Only | Print | Product List | Glossary On
Versions: 1 2 3 4 5 6 7 8 9 10 11 12 13 14 15 16 17 18 19 20 21 22 23 24 25 26 27 28 29 30 31 32 33 34 35 36 37 38 39 40 41 42 43 44 45 46 47 48 49 50
000
NZUS93 KARX 180110
HRRWXR

CURRENT HOURLY OBSERVATIONS ACROSS
MUCH OF THE UPPER MISSISSIPPI VALLEY
NATIONAL WEATHER SERVICE LA CROSSE WI
700 PM CST WED DEC 17 2014


...SOUTHEAST MINNESOTA...


CITY           SKY/WX    TMP DP  RH WIND       PRES   REMARKS
ROCHESTER      CLOUDY    17  11  77 N6        30.28S WCI   9
ROCHESTER/MAYO CLOUDY    18  10  73 NW5       30.29S WCI  11
WINONA         CLOUDY    21  14  73 CALM      30.33R
AUSTIN         CLOUDY    18  14  86 NE3       30.28R
ALBERT LEA     PTCLDY    16  14  93 CALM      30.28S
DODGE CENTER   PTCLDY    16  12  86 NE3       30.27S
PRESTON        CLOUDY    16  12  84 N7        30.28S WCI   6
OWATONNA       PTCLDY    16  10  79 CALM      30.29S
FARIBAULT      CLOUDY    18  12  79 CALM      30.30S
$$

...ELSEWHERE IN MINNESOTA...


CITY           SKY/WX    TMP DP  RH WIND       PRES   REMARKS
MINNEAPOLIS    PTCLDY    16   8  71 NE5       30.32S WCI   9
INTNL FALLS    PTCLDY    12   2  64 E6        30.31F WCI   3
DULUTH         PTCLDY    18  12  77 N6        30.25F WCI  10
RED WING       PTCLDY    18  10  73 CALM      30.31F
REDWOOD FALLS  MOCLDY    12   9  87 NW7       30.31R WCI   1
MANKATO        CLOUDY    18  10  73 CALM      30.30S
WORTHINGTON    PTCLDY    14  10  85 CALM      30.28S
FAIRMONT       PTCLDY    16  10  79 NW3       30.30R
$$

...SOUTHWEST WISCONSIN...


CITY           SKY/WX    TMP DP  RH WIND       PRES   REMARKS
LA CROSSE      CLOUDY    21  12  68 N5        30.32R WCI  15
PRAIRIE DU CHI CLEAR     22  14  72 NW5       30.30S WCI  15
BOSCOBEL       CLEAR     20  13  74 N5        30.31R WCI  13
LONE ROCK      CLOUDY    25  14  63 NW6       30.29S WCI  18
PLATTEVILLE    PTCLDY    20  16  84 CALM      30.28S
FORT MC COY    CLOUDY    19  13  76 N3        30.30S
CAMP DOUGLAS   PTCLDY    16  16 100 NW6       30.28R WCI   7
VIROQUA        CLOUDY    18  14  83 N9        30.25S WCI   7
WIS DELLS      CLOUDY    19  13  76 W6        30.26S WCI  11
$$

...ELSEWHERE IN WISCONSIN...


CITY           SKY/WX    TMP DP  RH WIND       PRES   REMARKS
MILWAUKEE      PTCLDY    23  13  65 W10       30.24R WCI  12
MADISON        CLOUDY    21  14  74 NW9       30.26R WCI  11
GREEN BAY      CLOUDY    26  18  71 W10       30.22R WCI  16
EAU CLAIRE     PTCLDY    15   8  73 CALM      30.29S
BLACK RVR FLS  FAIR      16  11  80 CALM      30.29S
MEDFORD        CLOUDY    19  14  81 W6        30.22R WCI  10
WAUSAU         CLOUDY    23  15  71 N7        30.21R WCI  15
WIS RAPIDS     MOCLDY    18  10  71 NW6       30.25S WCI  10
MARSHFIELD     CLOUDY    18  12  77 NW10      30.23S WCI   6
RICE LAKE      PTCLDY    17  11  78 NW3       30.30S
$$

...NORTHEAST IOWA...


CITY           SKY/WX    TMP DP  RH WIND       PRES   REMARKS
DECORAH        CLEAR     18  14  86 N5        30.27S WCI  11
MASON CITY     PTCLDY    14  11  87 W7        30.31R WCI   4
CHARLES CITY   CLEAR     19  16  86 CALM      30.30R
OELWEIN        CLEAR     19  16  86 N5        30.29R WCI  13
$$

...ELSEWHERE IN IOWA...


CITY           SKY/WX    TMP DP  RH WIND       PRES   REMARKS
DES MOINES     CLEAR     24  15  68 NE5       30.28F WCI  18
IOWA CITY      CLEAR     23  15  71 NW6       30.31F WCI  16
FORT DODGE     CLEAR     19  12  73 N3        30.30S
$$

...NORTHERN ILLINOIS...


CITY           SKY/WX    TMP DP  RH WIND       PRES   REMARKS
CHICAGO-OHARE  CLOUDY    25  15  66 NW10      30.26R WCI  15
CHICAGO-MIDWAY CLOUDY    27  16  63 NW7       30.27R WCI  19
MOLINE         CLEAR     24  15  68 NW3       30.30S
ROCKFORD       CLOUDY    24  16  71 W8        30.29S WCI  15
PEORIA         CLOUDY    25  18  74 CALM      30.30F
$$

NOTE: "FAIR" INDICATES FEW OR NO CLOUDS BELOW 12,000 FEET WITH NO
SIGNIFICANT WEATHER AND/OR OBSTRUCTIONS TO VISIBILITY. WIND
SPEEDS ARE IN MILES-PER-HOUR.



USA.gov is the U.S. government's official web portal to all federal, state and local government web resources and services.